Regional Weather Roundup
Issued by NWS Newport/Morehead, NC

Current Version | Previous Version | Text Only | Print | Product List | Glossary On
Versions: 1 2 3 4 5 6 7 8 9 10 11 12 13 14 15 16 17 18 19 20 21 22 23 24 25 26 27 28 29 30 31 32 33 34 35 36 37 38 39 40 41 42 43 44 45 46 47 48 49 50
719 ASUS42 KMHX 230713 RWRMHX WEATHER ROUNDUP FOR EASTERN NORTH CAROLINA NATIONAL WEATHER SERVICE NEWPORT/MOREHEAD CITY NC 300 AM EDT FRI JUN 23 2017 NOTE: "FAIR" INDICATES FEW OR NO CLOUDS BELOW 12,000 FEET WITH NO SIGNIFICANT WEATHER AND/OR OBSTRUCTIONS TO VISIBILITY NCZ015>017-031-032-045>047-102-103-230800- NORTH COAST CITY SKY/WX TMP DP RH WIND PRES REMARKS EDENTON MOCLDY 79 74 83 CALM 30.03S ELIZABETH CITY CLOUDY 77 73 87 SW9 30.00F KITTY HAWK CLOUDY 77 72 85 CALM 30.01S MANTEO CLOUDY 77 73 86 W8 30.02F $$ NCZ045>047-081-094-103-104-230800- CENTRAL COAST CITY SKY/WX TMP DP RH WIND PRES REMARKS FRISCO CLOUDY 79 75 87 W7 30.03F $$ NCZ095-097-098-100-101-230800- SOUTHERN COAST CITY SKY/WX TMP DP RH WIND PRES REMARKS BEAUFORT CLOUDY 80 79 96 SW9 30.04S CEDAR ISLAND NOT AVBL JACKSONVILLE CLOUDY 77 77 100 SW6 30.03F PINEY ISLAND MOSUNNY N/A N/A N/A SW7 30.03F WILMINGTON CLOUDY 78 77 96 SW7 30.04F $$ NCZ011>013-027>030-043-044-078>080-089-090>093-098-230800- COASTAL PLAIN CITY SKY/WX TMP DP RH WIND PRES REMARKS AHOSKIE N/A 72 71 96 CALM 30.01F CLINTON CLOUDY 76 76 100 SW3 30.04F FOG ELIZABETHTOWN NOT AVBL GOLDSBORO CLOUDY 75 75 100 SW7 30.01F GREENVILLE PTCLDY 75 73 94 SW3 30.04F HAVELOCK CLOUDY 77 75 93 SW6 30.04F KENANSVILLE CLOUDY 75 75 100 SW5 30.04F FOG KINSTON CLOUDY 76 74 95 S6 30.04F NEW BERN PTCLDY 76 76 100 S5 30.04F FOG RICHLANDS CLOUDY 76 76 100 SW6 30.04F ROCKY MOUNT CLOUDY 74 73 97 S5 30.02F WASHINGTON CLOUDY 74 73 93 SW6 30.03F WHITEVILLE CLOUDY 78 76 95 S7 30.04F $$ AMZ130-135-150-152-154-156-158-170-250-252-270-ANZ085-086-088-633-658-670-230800- MARINE OBSERVATIONS STATION/POSITION TIME TEMP WIND PRES WAVE SWELL AIR SEA DIR/SP/G HT/PER HT/PER (UTC) (F) (DEG/KT/KT) (MB) (FT/S) (FT/S) CHESAPEAKE LIGHT NOT AVBL 64 E VA BEACH 0650 74 71 230/ 10/ 12 1015.7 3/ 8 2/ 8 DUCK 0636 230/ 16/ 19 1015.6 2 E DUCK NOT AVBL OREGON INLET 0636 220/ 12/ 13 1016.3 13E OREGON INLT 0648 71 N/A 3/ 7 2/ 7 HATTERAS CG 0636 240/ 6/ 9 1016.8 DIAMOND BUOY 0650 80 80 260/ 12/ 14 1016.9 3/ 8 3/ 8 CAPE LOOKOUT 0700 79 230/ 7/ 10 1016.8 BEAUFORT LAB 0636 230/ 3/ 8 1016.6 30 SE NEW RVR IN 0608 79 81 230/ 12/ 16 1017.9 30 SE NEW RVR IN 0643 80 N/A 3/ 8 27 SE WRIGHTSVLE 0608 79 80 200/ 12/ 17 1017.2 5 SE WRIGHTSVLE 0608 80 79 210/ 8/ 14 1017.6 225 S CAPE HAT 0650 80 82 200/ 10/ 14 1018.9 4/ 8 3/ 8 41 SE CHARLESTON 0650 81 81 200/ 14/ 17 1017.6 3/ 8 2/ 8 $$

USA.gov is the U.S. government's official web portal to all federal, state and local government web resources and services.